This demonstration page uses our WeatherBlox Daily Observations layout. Learn more.

39.92423, -83.80882

Hourly Observations for May 18, 2016

Temp ( °F °C ) Dew Point ( °F °C ) Humidity (%) Winds ( mph kmh ) Pressure ( in mb ) Visibility ( mi km ) Precip ( " mm )
12:56 am 00:56 Cloudy with Light Rain 51 10.5 51 10.5 100 100 NNE 6 9 30.14 1021 5 8.0467 0.01 0.254
1:56 am 01:56 Cloudy 51 10.5 51 10.5 100 100 NNE 8 13 30.15 1021 7 11.26538 0 0.0254
2:35 am 02:35 Cloudy with Mist and Fog 52 11 52 11 100 100 N 8 13 30.18 1022 5 8.0467 0 0
2:46 am 02:46 Mostly Cloudy with Mist and Fog 52 11 52 11 100 100 N 6 9 30.18 1022 5 8.0467 0 0
2:56 am 02:56 Cloudy with Mist and Fog 51 10.5 51 10.5 100 100 N 7 11 30.15 1021 6 9.65604 0 0
3:56 am 03:56 Cloudy with Mist and Fog 51 10.5 51 10.5 100 100 N 9 15 30.13 1020 4 6.43736 0.01 0.254
4:08 am 04:08 Cloudy with Mist and Fog 52 11 52 11 100 100 N 9 15 30.18 1022 4 6.43736 0 0
4:26 am 04:26 Mostly Cloudy with Light Rain 52 11 52 11 100 100 NNE 8 13 30.18 1022 2.5 4.02335 0.02 0.508
4:37 am 04:37 Cloudy with Light Rain 52 11 52 11 100 100 N 8 13 30.18 1022 3 4.82802 0.02 0.508
4:56 am 04:56 Cloudy with Light Rain 51 10.5 51 10.5 100 100 NNE 8 13 30.14 1021 4 6.43736 0.02 0.508
5:03 am 05:03 Cloudy with Mist and Fog 52 11 52 11 100 100 NNE 10 17 30.18 1022 4 6.43736 0 0.0254
5:36 am 05:36 Cloudy 52 11 52 11 100 100 NNE 13 20 30.18 1022 10 16.0934 0.01 0.254
5:47 am 05:47 Cloudy 50 10 50 10 100 100 NNE 16 26 30.18 1022 10 16.0934 0.01 0.254
5:56 am 05:56 Cloudy 50 10 49 9.4 96 96 NE 13 20 30.15 1021 10 16.0934 0.01 0.254
6:56 am 06:56 Cloudy with Light Rain 49 9.4 49 9.4 100 100 NE 9 15 30.16 1021 10 16.0934 0 0.0254
7:56 am 07:56 Partly Cloudy 51 10.5 49 9.4 93 93 NE 12 19 30.16 1021 10 16.0934 0 0.0254
8:56 am 08:56 Partly Cloudy 54 12.2 48 8.8 80 80 NE 10 17 30.17 1022 10 16.0934 0 0
9:56 am 09:56 Sunny 58 14.4 47 8.3 67 67 NE 12 19 30.18 1022 10 16.0934 0 0
10:56 am 10:56 Mostly Sunny 61 16.1 46 7.7 58 58 NE 14 22 30.17 1022 10 16.0934 0 0
11:56 am 11:56 Sunny 63 17.2 45 7.2 52 52 N 10 17 30.18 1022 10 16.0934 0 0
12:56 pm 12:56 Sunny 65 18.3 45 7.2 49 49 NNE 9 15 30.16 1021 10 16.0934 0 0
1:56 pm 13:56 Sunny 67 19.4 45 7.2 45 45 NE 9 15 30.15 1021 10 16.0934 0 0
2:56 pm 14:56 Mostly Sunny 68 20 44 6.6 42 42 NE 10 17 30.14 1021 10 16.0934 0 0
3:56 pm 15:56 Mostly Cloudy 69 20.5 43 6.1 39 39 NNE 8 13 30.13 1020 10 16.0934 0 0
4:56 pm 16:56 Sunny 69 20.5 43 6.1 39 39 N 9 15 30.11 1020 10 16.0934 0 0
5:56 pm 17:56 Mostly Cloudy 68 20 43 6.1 40 40 N 8 13 30.12 1020 10 16.0934 0 0
6:56 pm 18:56 Mostly Cloudy 67 19.4 43 6.1 42 42 NNE 9 15 30.11 1020 10 16.0934 0 0
7:56 pm 19:56 Mostly Cloudy 64 17.7 42 5.5 45 45 N 9 15 30.13 1020 10 16.0934 0 0
8:56 pm 20:56 Mostly Clear 59 15 45 7.2 60 60 NNE 10 17 30.14 1021 10 16.0934 0 0
9:56 pm 21:56 Clear 56 13.3 42 5.5 59 59 NNE 10 17 30.16 1021 10 16.0934 0 0
10:56 pm 22:56 Clear 54 12.2 39 3.8 57 57 NNE 10 17 30.17 1022 10 16.0934 0 0
11:56 pm 23:56 Clear 50 10 39 3.8 66 66 NNE 7 11 30.18 1022 10 16.0934 0 0

Powered by AerisWeather